Pittsfield, IL

8:01 PM CDT on June 26, 2017 (GMT -0500)
Pittsfield Penstone Municipal

Weather History for KPPQ - August, 2014

Change the Weather History Date:

Friday, August 22, 2014

  Actual Average (KUIN) Record (KUIN)
Temperature  
Mean Temperature 83 °F 74 °F  
Max Temperature 89 °F 84 °F 103 °F (1936)
Min Temperature 78 °F 64 °F 50 °F (1923)
Degree Days  
Heating Degree Days 0 0  
Month to date heating degree days 0  
Since 1 June heating degree days 16  
Since 1 July heating degree days 0  
Cooling Degree Days 18 9  
Month to date cooling degree days 222  
Year to date cooling degree days 878  
Since 1 June cooling degree days 792  
Growing Degree Days 33 (Base 50)    
Moisture  
Dew Point 74 °F    
Average Humidity 76    
Maximum Humidity 92    
Minimum Humidity 60    
Precipitation  
Precipitation 0.00 in 0.11 in 1.12 in (1905)
Month to date precipitation 2.59  
Year to date precipitation 24.71  
Sea Level Pressure  
Sea Level Pressure 29.96 in    
Wind  
Wind Speed 5 mph (SSW)    
Max Wind Speed 9 mph    
Max Gust Speed -    
Visibility 9 miles    
Events      
T = Trace of Precipitation, MM = Missing Value Source: NWS Daily Summary

Daily Weather History Graph

Daily Weather History Graph

Search for Another Location

Airport or City:

Trip Planner

Search our weather history database for the weather conditions in past years. The results will help you decide how hot, cold, wet, or windy it might be!

Date:

Astronomy

Aug. 22, 2014 Rise Set
Actual Time 6:21 AM CDT 7:49 PM CDT
Civil Twilight 5:53 AM CDT 8:17 PM CDT
Nautical Twilight 5:19 AM CDT 8:51 PM CDT
Astronomical Twilight 4:43 AM CDT 9:27 PM CDT
Moon 3:45 AM CDT (8/22) 5:57 PM CDT (8/22)
Length of Visible Light 14h 23m
Length of Day
13h 27m
Waning Crescent, 7% of the Moon is Illuminated
Aug 22
Waning Crescent
Aug 25
New
Sep 2
First Quarter
Sep 8
Full
Sep 15
Last Quarter

Hourly Weather History & Observations

Time (CDT) Temp. Heat Index Dew Point Humidity Pressure Visibility Wind Dir Wind Speed Gust Speed Precip Events Conditions
12:15 AM 79.0 °F - 73.9 °F 84% 29.94 in 10.0 mi South 3.5 mph - N/A   Clear
12:35 AM 79.5 °F - 73.6 °F 82% 29.93 in 10.0 mi South 5.8 mph - N/A   Clear
12:55 AM 79.7 °F - 73.4 °F 81% 29.93 in 10.0 mi South 5.8 mph - N/A   Clear
1:15 AM 79.3 °F - 73.4 °F 82% 29.92 in 10.0 mi South 5.8 mph - N/A   Clear
1:35 AM 80.6 °F 85.4 °F 73.4 °F 79% 29.93 in 10.0 mi South 5.8 mph - N/A   Clear
1:55 AM 79.9 °F - 72.5 °F 78% 29.92 in 10.0 mi SSW 5.8 mph - N/A   Clear
2:15 AM 80.2 °F 84.0 °F 71.8 °F 75% 29.92 in 10.0 mi SSW 8.1 mph - N/A   Clear
2:35 AM 79.9 °F - 71.6 °F 76% 29.92 in 10.0 mi SW 6.9 mph - N/A   Clear
2:55 AM 79.3 °F - 71.2 °F 76% 29.92 in 10.0 mi SSW 8.1 mph - N/A   Clear
3:15 AM 79.2 °F - 70.7 °F 75% 29.92 in 10.0 mi SW 8.1 mph - N/A   Clear
3:35 AM 80.2 °F 83.5 °F 70.2 °F 71% 29.93 in 10.0 mi WSW 8.1 mph - N/A   Clear
3:55 AM 80.6 °F 83.9 °F 69.8 °F 70% 29.93 in 10.0 mi WSW 9.2 mph - N/A   Clear
4:15 AM 80.1 °F 83.2 °F 69.8 °F 71% 29.93 in 10.0 mi SW 8.1 mph - N/A   Clear
4:35 AM 79.7 °F - 70.0 °F 72% 29.93 in 10.0 mi WSW 5.8 mph - N/A   Clear
4:55 AM 78.8 °F - 70.0 °F 74% 29.93 in 10.0 mi SW 5.8 mph - N/A   Clear
5:15 AM 78.4 °F - 70.0 °F 75% 29.94 in 10.0 mi SW 4.6 mph - N/A   Clear
5:35 AM 78.3 °F - 70.2 °F 76% 29.96 in 10.0 mi WSW 5.8 mph - N/A   Clear
5:55 AM 78.8 °F - 70.2 °F 75% 29.96 in 10.0 mi WSW 6.9 mph - N/A   Scattered Clouds
6:15 AM 79.0 °F - 70.2 °F 74% 29.96 in 10.0 mi SW 6.9 mph - N/A   Scattered Clouds
6:35 AM 78.8 °F - 70.3 °F 75% 29.96 in 10.0 mi SW 6.9 mph - N/A   Clear
6:55 AM 78.4 °F - 70.5 °F 77% 29.98 in 10.0 mi West 6.9 mph - N/A   Clear
7:15 AM 78.3 °F - 70.7 °F 77% 29.99 in 10.0 mi West 6.9 mph - N/A   Clear
7:35 AM 78.8 °F - 70.7 °F 76% 30.00 in 10.0 mi WSW 6.9 mph - N/A   Clear
7:55 AM 79.0 °F - 71.1 °F 77% 30.00 in 10.0 mi WSW 5.8 mph - N/A   Scattered Clouds
8:15 AM 79.3 °F - 71.6 °F 77% 30.00 in 10.0 mi WSW 5.8 mph - N/A   Clear
8:35 AM 79.7 °F - 71.6 °F 76% 30.00 in 10.0 mi West 4.6 mph - N/A   Clear
8:55 AM 79.7 °F - 71.6 °F 76% 30.00 in 10.0 mi SW 3.5 mph - N/A   Clear
9:15 AM 80.1 °F 84.0 °F 72.3 °F 77% 29.99 in 10.0 mi SSE 3.5 mph - N/A   Clear
9:35 AM 80.8 °F 85.4 °F 73.0 °F 77% 29.99 in 10.0 mi SSE 3.5 mph - N/A   Clear
9:55 AM 80.6 °F 85.2 °F 73.2 °F 78% 29.99 in 10.0 mi SSE 5.8 mph - N/A   Clear
10:15 AM 81.0 °F 85.8 °F 73.2 °F 77% 30.00 in 10.0 mi SSE 5.8 mph - N/A   Clear
10:35 AM 80.6 °F 85.2 °F 73.2 °F 78% 30.00 in 10.0 mi South 3.5 mph - N/A   Clear
10:55 AM 80.6 °F 85.4 °F 73.4 °F 79% 30.01 in 10.0 mi SE 3.5 mph - N/A   Clear
11:15 AM 81.3 °F 86.8 °F 73.9 °F 78% 30.03 in 10.0 mi Calm Calm - N/A   Clear
11:35 AM 81.5 °F 86.9 °F 73.8 °F 77% 30.03 in 10.0 mi Calm Calm - N/A   Scattered Clouds
11:55 AM 81.5 °F 87.4 °F 74.5 °F 79% 30.02 in 10.0 mi SSE 4.6 mph - N/A   Scattered Clouds
12:15 PM 82.2 °F 89.1 °F 75.0 °F 79% 30.02 in 10.0 mi Calm Calm - N/A   Clear
12:35 PM 85.6 °F 95.0 °F 75.6 °F 72% 30.01 in 10.0 mi SSE 5.8 mph - N/A   Clear
12:55 PM 86.0 °F 95.1 °F 75.2 °F 70% 30.00 in 10.0 mi SE 6.9 mph - N/A   Clear
1:15 PM 87.1 °F 95.9 °F 74.5 °F 66% 30.00 in 10.0 mi SE 8.1 mph - N/A   Clear
1:35 PM 87.4 °F 95.8 °F 73.9 °F 64% 29.99 in 10.0 mi South 5.8 mph - N/A   Clear
1:55 PM 87.8 °F 96.6 °F 74.5 °F 64% 29.98 in 10.0 mi SSE 5.8 mph - N/A   Clear
2:15 PM 88.3 °F 97.9 °F 74.7 °F 64% 29.98 in 10.0 mi SE 4.6 mph - N/A   Scattered Clouds
2:35 PM 88.9 °F 98.6 °F 74.8 °F 63% 29.97 in 10.0 mi SSE 4.6 mph - N/A   Scattered Clouds
2:55 PM 88.7 °F 97.7 °F 74.3 °F 62% 29.97 in 10.0 mi South 4.6 mph - N/A   Scattered Clouds
3:15 PM 88.9 °F 97.1 °F 73.4 °F 60% 29.96 in 10.0 mi SSW 4.6 mph - N/A   Scattered Clouds
3:35 PM 88.7 °F 98.2 °F 74.8 °F 63% 29.95 in 7.0 mi South 8.1 mph - N/A   Scattered Clouds
3:55 PM 88.3 °F 98.4 °F 75.4 °F 65% 29.94 in 10.0 mi South 8.1 mph - N/A   Clear
4:15 PM 87.8 °F 97.6 °F 75.4 °F 66% 29.94 in 10.0 mi South 6.9 mph - N/A   Clear
4:35 PM 88.7 °F 101.0 °F 76.8 °F 68% 29.94 in 10.0 mi SSW 5.8 mph - N/A   Clear
4:55 PM 88.7 °F 101.0 °F 76.8 °F 68% 29.94 in 10.0 mi South 4.6 mph - N/A   Clear
5:15 PM 88.2 °F 100.1 °F 76.8 °F 69% 29.94 in 10.0 mi SSW 3.5 mph - N/A   Scattered Clouds
5:35 PM 88.2 °F 100.1 °F 77.0 °F 69% 29.94 in 10.0 mi South 4.6 mph - N/A   Mostly Cloudy
5:55 PM 86.9 °F 96.4 °F 75.4 °F 68% 29.94 in 10.0 mi South 3.5 mph - N/A   Scattered Clouds
6:15 PM 86.9 °F 97.3 °F 76.1 °F 70% 29.93 in 10.0 mi Calm Calm - N/A   Clear
6:35 PM 87.3 °F 98.8 °F 77.0 °F 71% 29.93 in 10.0 mi Calm Calm - N/A   Clear
6:55 PM 86.4 °F 97.8 °F 77.2 °F 74% 29.93 in 7.0 mi Calm Calm - N/A   Clear
7:15 PM 85.8 °F 98.3 °F 78.4 °F 78% 29.94 in 7.0 mi Calm Calm - N/A   Clear
7:35 PM 83.8 °F 95.1 °F 78.4 °F 84% 29.94 in 7.0 mi Calm Calm - N/A   Clear
7:55 PM 82.6 °F 92.0 °F 77.9 °F 86% 29.94 in 5.0 mi Calm Calm - N/A   Haze
8:15 PM 81.5 °F 89.2 °F 77.2 °F 87% 29.94 in 7.0 mi ENE 3.5 mph - N/A   Clear
8:35 PM 81.0 °F 87.7 °F 76.8 °F 87% 29.95 in 7.0 mi Calm Calm - N/A   Clear
8:55 PM 80.4 °F 86.6 °F 76.8 °F 89% 29.95 in 7.0 mi ENE 3.5 mph - N/A   Clear
9:15 PM 79.9 °F - 76.3 °F 89% 29.96 in 7.0 mi NE 3.5 mph - N/A   Clear
9:35 PM 79.9 °F - 76.3 °F 89% 29.96 in 7.0 mi NE 3.5 mph - N/A   Clear
9:55 PM 79.9 °F - 76.3 °F 89% 29.97 in 7.0 mi NE 3.5 mph - N/A   Clear
10:15 PM 79.7 °F - 76.5 °F 90% 29.97 in 7.0 mi Calm Calm - N/A   Clear
10:35 PM 79.5 °F - 76.3 °F 90% 29.97 in 7.0 mi ENE 3.5 mph - N/A   Clear
10:55 PM 79.0 °F - 75.9 °F 90% 29.97 in 5.0 mi ENE 3.5 mph - N/A   Clear
11:15 PM 79.0 °F - 76.1 °F 91% 29.97 in 5.0 mi Calm Calm - N/A   Clear
11:35 PM 78.8 °F - 75.2 °F 89% 29.97 in 5.0 mi Calm Calm - N/A   Clear
11:55 PM 78.4 °F - 75.9 °F 92% 29.96 in 3.0 mi Calm Calm - N/A   Clear